QPF
0.01 0.01 0.01 0.01 0.02 0.02 0.02 0.03 0.02 0.03 0.02 0.01 0.01 0.01 0.01 0.01 0.01 0.00 0.00 0.01 0.01 0.01 0.01 0.01 0.01 0.01 0.01 0.01 0.01 0.01 0.01 0.01 0.00 0.00 0.00 0.00 0.00 0.00 0.00 0.00 0.00 0.01 0.01
0.00 0.01 0.01 0.02 0.02 0.02 0.02 0.02 0.02 0.02 0.02 0.02 0.02 0.02 0.01 0.01 0.00 0.00 0.00 0.00 0.00 0.01 0.01 0.01 0.01 0.01 0.01 0.01 0.01 0.00 0.00 0.00 0.00 0.00 0.00 0.00 0.00 0.01 0.00 0.00 0.00 0.01 0.01
0.00 0.01 0.01 0.02 0.02 0.02 0.02 0.02 0.02 0.02 0.02 0.02 0.02 0.02 0.01 0.01 0.00 0.00 0.00 0.00 0.00 0.00 0.00 0.00 0.01 0.01 0.01 0.00 0.00 0.00 0.00 0.00 0.00 0.00 0.00 0.00 0.00 0.01 0.01 0.01 0.01 0.01 0.01
0.01 0.01 0.02 0.03 0.03 0.03 0.03 0.02 0.03 0.03 0.03 0.03 0.03 0.02 0.01 0.01 0.00 0.00 0.00 0.00 0.00 0.00 0.00 0.01 0.01 0.01 0.00 0.00 0.00 0.00 0.00 0.00 0.00 0.00 0.00 0.00 0.00 0.01 0.01 0.01 0.01 0.01 0.01
0.01 0.02 0.03 0.04 0.04 0.04 0.04 0.03 0.03 0.04 0.04 0.04 0.03 0.02 0.02 0.01 0.00 0.00 0.00 0.00 0.00 0.00 0.00 0.00 0.01 0.01 0.00 0.00 0.00 0.00 0.00 0.00 0.00 0.00 0.00 0.00 0.01 0.01 0.01 0.01 0.01 0.01 0.01
0.02 0.02 0.04 0.04 0.05 0.05 0.04 0.04 0.04 0.05 0.04 0.04 0.03 0.03 0.02 0.02 0.01 0.01 0.00 0.00 0.00 0.00 0.00 0.00 0.00 0.00 0.00 0.00 0.00 0.00 0.00 0.00 0.00 0.00 0.00 0.00 0.00 0.01 0.01 0.01 0.01 0.01 0.01
0.02 0.03 0.04 0.05 0.06 0.08 0.07 0.06 0.06 0.06 0.06 0.05 0.04 0.02 0.02 0.02 0.01 0.01 0.01 0.00 0.00 0.00 0.00 0.00 0.00 0.00 0.00 0.00 0.00 0.00 0.00 0.00 0.00 0.00 0.00 0.00 0.00 0.01 0.01 0.01 0.00 0.00 0.00
0.01 0.02 0.04 0.06 0.08 0.09 0.10 0.08 0.07 0.07 0.07 0.07 0.05 0.03 0.03 0.03 0.01 0.01 0.01 0.00 0.00 0.00 0.00 0.00 0.00 0.00 0.00 0.00 0.00 0.00 0.00 0.00 0.00 0.00 0.00 0.00 0.00 0.01 0.00 0.00 0.00 0.01 0.01
0.02 0.02 0.03 0.04 0.07 0.10 0.12 0.11 0.09 0.07 0.07 0.06 0.05 0.04 0.03 0.03 0.02 0.02 0.01 0.01 0.00 0.00 0.00 0.00 0.00 0.00 0.00 0.00 0.00 0.00 0.00 0.00 0.00 0.00 0.00 0.00 0.00 0.00 0.00 0.00 0.01 0.01 0.01
0.02 0.03 0.03 0.04 0.05 0.08 0.12 0.13 0.12 0.10 0.08 0.07 0.05 0.03 0.03 0.03 0.03 0.03 0.02 0.01 0.01 0.01 0.01 0.01 0.00 0.00 0.00 0.00 0.00 0.00 0.00 0.00 0.00 0.00 0.00 0.00 0.01 0.01 0.01 0.01 0.01 0.01 0.01
0.03 0.04 0.05 0.04 0.04 0.05 0.07 0.12 0.15 0.12 0.11 0.09 0.06 0.04 0.03 0.03 0.03 0.03 0.02 0.02 0.02 0.01 0.01 0.01 0.01 0.00 0.00 0.00 0.00 0.00 0.00 0.00 0.00 0.00 0.00 0.00 0.01 0.01 0.01 0.01 0.01 0.01 0.01
0.03 0.05 0.05 0.04 0.03 0.04 0.04 0.08 0.15 0.15 0.12 0.11 0.07 0.05 0.03 0.03 0.02 0.02 0.01 0.01 0.02 0.02 0.01 0.01 0.01 0.01 0.00 0.00 0.00 0.00 0.00 0.00 0.00 0.00 0.00 0.00 0.00 0.00 0.01 0.01 0.01 0.01 0.01
0.03 0.04 0.06 0.04 0.04 0.03 0.04 0.04 0.09 0.14 0.13 0.12 0.12 0.07 0.04 0.03 0.02 0.02 0.02 0.01 0.02 0.02 0.02 0.01 0.01 0.01 0.01 0.00 0.00 0.00 0.00 0.00 0.00 0.00 0.00 0.00 0.00 0.00 0.00 0.01 0.01 0.01 0.01
0.04 0.04 0.05 0.05 0.04 0.03 0.04 0.04 0.04 0.09 0.13 0.13 0.14 0.12 0.06 0.04 0.03 0.03 0.03 0.02 0.02 0.02 0.02 0.01 0.01 0.01 0.01 0.00 0.00 0.00 0.00 0.00 0.00 0.00 0.00 0.00 0.00 0.00 0.00 0.01 0.01 0.01 0.01
0.04 0.05 0.05 0.05 0.05 0.04 0.05 0.05 0.04 0.05 0.09 0.12 0.13 0.13 0.10 0.06 0.04 0.04 0.03 0.02 0.01 0.01 0.01 0.01 0.01 0.01 0.01 0.01 0.01 0.00 0.00 0.00 0.00 0.00 0.00 0.00 0.00 0.00 0.00 0.00 0.01 0.02 0.03
0.05 0.05 0.05 0.05 0.05 0.05 0.05 0.06 0.06 0.06 0.07 0.11 0.13 0.13 0.12 0.09 0.05 0.03 0.04 0.03 0.02 0.01 0.02 0.02 0.02 0.02 0.02 0.01 0.01 0.01 0.00 0.00 0.00 0.00 0.00 0.00 0.00 0.00 0.00 0.00 0.01 0.02 0.03
0.07 0.06 0.05 0.06 0.07 0.05 0.04 0.07 0.07 0.07 0.07 0.09 0.11 0.11 0.10 0.10 0.08 0.04 0.04 0.04 0.04 0.03 0.02 0.02 0.03 0.03 0.03 0.03 0.03 0.02 0.01 0.00 0.00 0.00 0.00 0.00 0.00 0.00 0.00 0.00 0.01 0.01 0.02
0.08 0.09 0.08 0.08 0.08 0.06 0.04 0.05 0.07 0.08 0.09 0.09 0.08 0.08 0.08 0.08 0.09 0.07 0.05 0.05 0.05 0.05 0.03 0.02 0.02 0.02 0.02 0.02 0.02 0.02 0.02 0.01 0.01 0.00 0.00 0.00 0.00 0.00 0.00 0.00 0.00 0.01 0.02
0.08 0.10 0.10 0.09 0.08 0.07 0.07 0.05 0.06 0.09 0.08 0.11 0.12 0.09 0.08 0.07 0.08 0.08 0.07 0.06 0.06 0.07 0.06 0.03 0.02 0.02 0.02 0.02 0.02 0.02 0.02 0.02 0.02 0.02 0.01 0.00 0.00 0.00 0.00 0.00 0.00 0.00 0.01
0.09 0.10 0.12 0.11 0.10 0.07 0.05 0.05 0.05 0.08 0.08 0.08 0.13 0.13 0.12 0.11 0.08 0.09 0.09 0.09 0.08 0.08 0.10 0.08 0.03 0.01 0.01 0.01 0.01 0.02 0.02 0.02 0.03 0.03 0.02 0.01 0.01 0.01 0.00 0.00 0.00 0.00 0.00
0.09 0.07 0.08 0.10 0.09 0.07 0.05 0.04 0.03 0.05 0.09 0.08 0.08 0.14 0.17 0.17 0.16 0.15 0.12 0.10 0.10 0.09 0.08 0.08 0.05 0.02 0.01 0.01 0.01 0.01 0.01 0.01 0.01 0.02 0.02 0.01 0.01 0.01 0.00 0.00 0.00 0.00 0.00
0.07 0.05 0.05 0.08 0.07 0.06 0.05 0.04 0.04 0.05 0.08 0.09 0.09 0.10 0.14 0.16 0.17 0.20 0.19 0.14 0.11 0.12 0.11 0.08 0.05 0.03 0.02 0.01 0.01 0.01 0.01 0.01 0.01 0.01 0.01 0.01 0.01 0.00 0.00 0.00 0.00 0.00 0.00
0.06 0.05 0.04 0.05 0.06 0.06 0.06 0.05 0.05 0.06 0.05 0.07 0.07 0.09 0.09 0.11 0.13 0.14 0.14 0.13 0.15 0.14 0.13 0.11 0.08 0.05 0.03 0.02 0.01 0.02 0.02 0.02 0.01 0.01 0.01 0.01 0.01 0.01 0.00 0.00 0.00 0.00 0.00
0.05 0.05 0.04 0.05 0.06 0.06 0.06 0.05 0.05 0.05 0.05 0.05 0.07 0.08 0.09 0.10 0.11 0.10 0.10 0.10 0.10 0.15 0.16 0.14 0.11 0.08 0.05 0.04 0.04 0.04 0.03 0.03 0.02 0.02 0.02 0.02 0.01 0.01 0.01 0.01 0.00 0.00 0.00
0.05 0.04 0.04 0.05 0.06 0.05 0.05 0.05 0.05 0.06 0.07 0.07 0.08 0.08 0.09 0.11 0.12 0.13 0.10 0.09 0.10 0.09 0.10 0.11 0.12 0.11 0.08 0.07 0.07 0.07 0.06 0.05 0.04 0.03 0.02 0.02 0.02 0.02 0.01 0.01 0.01 0.01 0.00
0.04 0.04 0.04 0.05 0.05 0.05 0.04 0.04 0.04 0.04 0.05 0.08 0.10 0.11 0.11 0.12 0.13 0.14 0.15 0.12 0.11 0.11 0.09 0.08 0.08 0.09 0.09 0.08 0.08 0.07 0.06 0.05 0.04 0.02 0.02 0.01 0.01 0.01 0.01 0.01 0.01 0.00 0.00
MSLP
1006.57 1006.73 1007.13 1007.73 1008.44 1009.15 1009.79 1010.31 1010.70 1011.00 1011.26 1011.54 1011.89 1012.32 1012.82 1013.34 1013.83 1014.25 1014.57 1014.79 1014.94 1015.05 1015.18 1015.34 1015.55 1015.81 1016.09 1016.36 1016.59 1016.78 1016.92 1017.04 1017.16 1017.28 1017.43 1017.59 1017.76 1017.90 1017.99 1018.04 1018.03 1017.98 1017.93
1006.12 1006.37 1006.86 1007.54 1008.31 1009.07 1009.74 1010.29 1010.71 1011.04 1011.33 1011.66 1012.05 1012.52 1013.05 1013.58 1014.07 1014.48 1014.78 1014.97 1015.11 1015.22 1015.37 1015.57 1015.83 1016.14 1016.46 1016.75 1016.99 1017.16 1017.27 1017.35 1017.43 1017.53 1017.68 1017.86 1018.05 1018.23 1018.36 1018.44 1018.44 1018.39 1018.32
1005.67 1006.00 1006.57 1007.32 1008.15 1008.96 1009.68 1010.26 1010.73 1011.10 1011.44 1011.82 1012.26 1012.76 1013.30 1013.83 1014.31 1014.68 1014.94 1015.11 1015.23 1015.35 1015.52 1015.77 1016.08 1016.44 1016.81 1017.13 1017.37 1017.53 1017.61 1017.65 1017.69 1017.77 1017.91 1018.10 1018.32 1018.53 1018.71 1018.82 1018.85 1018.81 1018.74
1005.29 1005.69 1006.33 1007.14 1008.02 1008.87 1009.63 1010.25 1010.76 1011.18 1011.58 1012.00 1012.48 1013.01 1013.56 1014.09 1014.54 1014.88 1015.11 1015.25 1015.36 1015.49 1015.69 1015.98 1016.34 1016.76 1017.16 1017.51 1017.77 1017.92 1017.98 1017.99 1018.00 1018.05 1018.17 1018.35 1018.58 1018.82 1019.03 1019.18 1019.24 1019.23 1019.16
1005.02 1005.47 1006.17 1007.02 1007.94 1008.82 1009.60 1010.26 1010.80 1011.27 1011.72 1012.19 1012.71 1013.26 1013.82 1014.34 1014.78 1015.10 1015.31 1015.44 1015.55 1015.70 1015.92 1016.24 1016.65 1017.10 1017.55 1017.92 1018.19 1018.34 1018.40 1018.39 1018.37 1018.40 1018.49 1018.66 1018.88 1019.12 1019.35 1019.51 1019.60 1019.62 1019.57
1004.86 1005.37 1006.10 1006.98 1007.91 1008.80 1009.60 1010.28 1010.86 1011.36 1011.85 1012.37 1012.92 1013.50 1014.07 1014.59 1015.02 1015.34 1015.55 1015.70 1015.82 1015.99 1016.24 1016.59 1017.02 1017.50 1017.96 1018.35 1018.64 1018.80 1018.86 1018.84 1018.81 1018.82 1018.88 1019.02 1019.22 1019.44 1019.65 1019.83 1019.93 1019.96 1019.94
1004.80 1005.35 1006.11 1006.99 1007.92 1008.81 1009.61 1010.31 1010.91 1011.45 1011.97 1012.52 1013.10 1013.70 1014.29 1014.82 1015.27 1015.61 1015.84 1016.02 1016.17 1016.37 1016.64 1017.00 1017.44 1017.92 1018.38 1018.78 1019.07 1019.25 1019.33 1019.33 1019.30 1019.29 1019.33 1019.43 1019.58 1019.77 1019.95 1020.10 1020.21 1020.26 1020.25
1004.82 1005.39 1006.15 1007.02 1007.93 1008.81 1009.61 1010.31 1010.93 1011.51 1012.07 1012.65 1013.25 1013.87 1014.48 1015.03 1015.50 1015.87 1016.15 1016.37 1016.57 1016.80 1017.09 1017.45 1017.88 1018.34 1018.78 1019.17 1019.46 1019.66 1019.76 1019.78 1019.78 1019.77 1019.80 1019.86 1019.97 1020.10 1020.23 1020.35 1020.44 1020.49 1020.50
1004.87 1005.44 1006.18 1007.02 1007.90 1008.76 1009.55 1010.27 1010.92 1011.54 1012.14 1012.75 1013.38 1014.01 1014.63 1015.20 1015.70 1016.11 1016.44 1016.72 1016.97 1017.24 1017.54 1017.90 1018.29 1018.71 1019.12 1019.48 1019.77 1019.97 1020.11 1020.17 1020.20 1020.22 1020.24 1020.28 1020.34 1020.42 1020.49 1020.56 1020.62 1020.66 1020.69
1004.93 1005.47 1006.16 1006.95 1007.79 1008.62 1009.42 1010.16 1010.86 1011.53 1012.18 1012.83 1013.48 1014.12 1014.74 1015.32 1015.84 1016.29 1016.67 1017.01 1017.32 1017.63 1017.95 1018.30 1018.66 1019.03 1019.39 1019.71 1019.98 1020.20 1020.36 1020.47 1020.55 1020.60 1020.64 1020.67 1020.70 1020.72 1020.74 1020.77 1020.79 1020.82 1020.84
1005.01 1005.48 1006.09 1006.80 1007.58 1008.38 1009.19 1009.98 1010.74 1011.48 1012.19 1012.88 1013.55 1014.20 1014.81 1015.38 1015.91 1016.38 1016.81 1017.21 1017.58 1017.94 1018.29 1018.63 1018.97 1019.30 1019.60 1019.88 1020.13 1020.35 1020.53 1020.69 1020.82 1020.92 1020.99 1021.02 1021.03 1021.02 1021.00 1020.98 1020.97 1020.97 1020.99
1005.10 1005.47 1005.96 1006.58 1007.28 1008.06 1008.88 1009.72 1010.56 1011.38 1012.17 1012.91 1013.60 1014.25 1014.84 1015.39 1015.91 1016.40 1016.87 1017.32 1017.75 1018.17 1018.56 1018.92 1019.25 1019.54 1019.80 1020.04 1020.26 1020.47 1020.67 1020.87 1021.04 1021.19 1021.29 1021.35 1021.36 1021.33 1021.28 1021.22 1021.18 1021.16 1021.17
1005.21 1005.45 1005.81 1006.31 1006.93 1007.67 1008.50 1009.40 1010.32 1011.24 1012.11 1012.91 1013.63 1014.27 1014.84 1015.36 1015.86 1016.35 1016.84 1017.34 1017.84 1018.32 1018.77 1019.17 1019.51 1019.79 1020.03 1020.24 1020.43 1020.63 1020.83 1021.05 1021.25 1021.44 1021.58 1021.66 1021.68 1021.65 1021.59 1021.51 1021.44 1021.39 1021.38
1005.35 1005.44 1005.66 1006.03 1006.56 1007.26 1008.10 1009.05 1010.05 1011.06 1012.01 1012.87 1013.62 1014.26 1014.81 1015.30 1015.77 1016.25 1016.76 1017.30 1017.86 1018.42 1018.93 1019.39 1019.77 1020.07 1020.31 1020.50 1020.67 1020.85 1021.04 1021.26 1021.48 1021.69 1021.86 1021.97 1022.01 1021.99 1021.92 1021.83 1021.74 1021.67 1021.64
1005.48 1005.45 1005.52 1005.77 1006.22 1006.87 1007.71 1008.70 1009.77 1010.86 1011.89 1012.81 1013.59 1014.23 1014.77 1015.23 1015.68 1016.14 1016.66 1017.23 1017.85 1018.47 1019.07 1019.60 1020.03 1020.37 1020.62 1020.81 1020.97 1021.13 1021.31 1021.52 1021.73 1021.95 1022.13 1022.26 1022.32 1022.31 1022.26 1022.16 1022.07 1021.98 1021.92
1005.56 1005.44 1005.42 1005.57 1005.94 1006.55 1007.38 1008.39 1009.51 1010.65 1011.74 1012.72 1013.53 1014.19 1014.72 1015.17 1015.59 1016.04 1016.56 1017.16 1017.81 1018.50 1019.16 1019.76 1020.26 1020.65 1020.94 1021.14 1021.30 1021.44 1021.60 1021.78 1021.98 1022.19 1022.37 1022.51 1022.58 1022.60 1022.56 1022.48 1022.38 1022.28 1022.20
1005.56 1005.39 1005.33 1005.43 1005.75 1006.33 1007.14 1008.15 1009.29 1010.47 1011.60 1012.61 1013.46 1014.13 1014.67 1015.12 1015.53 1015.98 1016.49 1017.09 1017.77 1018.48 1019.19 1019.85 1020.41 1020.85 1021.18 1021.41 1021.57 1021.71 1021.85 1022.00 1022.18 1022.36 1022.53 1022.67 1022.76 1022.80 1022.78 1022.72 1022.63 1022.54 1022.44
1005.42 1005.29 1005.24 1005.34 1005.65 1006.21 1007.00 1008.00 1009.13 1010.31 1011.46 1012.49 1013.37 1014.08 1014.64 1015.10 1015.52 1015.96 1016.46 1017.05 1017.72 1018.43 1019.16 1019.84 1020.43 1020.92 1021.28 1021.54 1021.73 1021.87 1021.99 1022.12 1022.27 1022.43 1022.58 1022.72 1022.81 1022.87 1022.88 1022.85 1022.79 1022.70 1022.61
1005.15 1005.10 1005.12 1005.28 1005.63 1006.19 1006.97 1007.94 1009.04 1010.20 1011.33 1012.37 1013.27 1014.01 1014.61 1015.11 1015.55 1015.99 1016.48 1017.04 1017.67 1018.35 1019.05 1019.72 1020.32 1020.82 1021.22 1021.51 1021.72 1021.87 1021.99 1022.11 1022.23 1022.36 1022.49 1022.62 1022.72 1022.80 1022.84 1022.84 1022.81 1022.75 1022.67
1004.75 1004.83 1004.97 1005.23 1005.65 1006.24 1007.02 1007.95 1009.01 1010.12 1011.22 1012.26 1013.17 1013.95 1014.60 1015.14 1015.62 1016.07 1016.55 1017.07 1017.64 1018.26 1018.89 1019.51 1020.09 1020.58 1020.99 1021.30 1021.53 1021.70 1021.83 1021.94 1022.05 1022.16 1022.27 1022.39 1022.49 1022.58 1022.64 1022.68 1022.70 1022.68 1022.63
1004.25 1004.48 1004.77 1005.17 1005.68 1006.32 1007.11 1008.01 1009.01 1010.07 1011.13 1012.14 1013.07 1013.89 1014.59 1015.20 1015.72 1016.20 1016.67 1017.14 1017.64 1018.17 1018.72 1019.26 1019.78 1020.25 1020.64 1020.97 1021.22 1021.42 1021.56 1021.67 1021.77 1021.86 1021.95 1022.04 1022.14 1022.23 1022.32 1022.39 1022.45 1022.48 1022.47
1003.69 1004.06 1004.52 1005.06 1005.68 1006.40 1007.20 1008.08 1009.03 1010.02 1011.03 1012.01 1012.95 1013.81 1014.58 1015.26 1015.85 1016.36 1016.83 1017.27 1017.70 1018.13 1018.58 1019.03 1019.47 1019.88 1020.26 1020.59 1020.86 1021.07 1021.23 1021.35 1021.43 1021.50 1021.56 1021.63 1021.71 1021.79 1021.89 1021.99 1022.09 1022.16 1022.21
1003.14 1003.62 1004.21 1004.89 1005.63 1006.42 1007.25 1008.12 1009.03 1009.96 1010.91 1011.87 1012.81 1013.71 1014.55 1015.30 1015.96 1016.53 1017.01 1017.43 1017.80 1018.15 1018.50 1018.85 1019.21 1019.57 1019.92 1020.24 1020.52 1020.74 1020.91 1021.03 1021.11 1021.15 1021.18 1021.20 1021.25 1021.31 1021.41 1021.52 1021.64 1021.75 1021.84
1002.63 1003.17 1003.85 1004.65 1005.49 1006.36 1007.23 1008.10 1008.98 1009.86 1010.77 1011.70 1012.64 1013.57 1014.47 1015.30 1016.03 1016.66 1017.18 1017.60 1017.94 1018.23 1018.50 1018.77 1019.05 1019.35 1019.67 1019.97 1020.25 1020.49 1020.66 1020.78 1020.83 1020.84 1020.83 1020.81 1020.80 1020.83 1020.90 1021.01 1021.14 1021.28 1021.41
1002.22 1002.75 1003.49 1004.35 1005.28 1006.22 1007.13 1008.01 1008.87 1009.72 1010.59 1011.49 1012.43 1013.39 1014.33 1015.23 1016.04 1016.74 1017.30 1017.74 1018.07 1018.33 1018.55 1018.76 1018.99 1019.24 1019.53 1019.81 1020.09 1020.32 1020.49 1020.59 1020.62 1020.60 1020.53 1020.46 1020.40 1020.38 1020.41 1020.49 1020.61 1020.76 1020.91
1001.93 1002.41 1003.14 1004.04 1005.01 1006.00 1006.95 1007.84 1008.69 1009.52 1010.37 1011.25 1012.18 1013.15 1014.13 1015.08 1015.95 1016.71 1017.33 1017.81 1018.16 1018.41 1018.61 1018.79 1018.98 1019.20 1019.46 1019.73 1019.99 1020.22 1020.38 1020.46 1020.47 1020.40 1020.29 1020.16 1020.05 1019.97 1019.96 1020.00 1020.10 1020.24 1020.39
Thickness
5745 5745 5742 5743 5744 5744 5745 5745 5746 5746 5745 5745 5744 5744 5743 5743 5743 5743 5742 5742 5741 5741 5740 5740 5739 5738 5737 5736 5735 5734 5733 5733 5732 5730 5730 5729 5728 5727 5726 5725 5725 5724 5722
5741 5741 5739 5740 5741 5741 5742 5742 5742 5742 5742 5742 5741 5741 5740 5740 5740 5739 5739 5738 5738 5737 5737 5736 5736 5735 5734 5733 5732 5730 5729 5729 5728 5727 5726 5726 5725 5723 5722 5721 5721 5719 5717
5737 5737 5735 5736 5737 5737 5738 5738 5738 5738 5738 5738 5738 5737 5737 5736 5736 5736 5735 5735 5735 5734 5733 5733 5732 5731 5730 5729 5727 5726 5725 5725 5724 5723 5723 5724 5722 5720 5718 5717 5716 5715 5713
5731 5731 5731 5731 5732 5733 5734 5734 5734 5734 5734 5734 5734 5734 5733 5733 5732 5732 5732 5731 5731 5730 5730 5729 5728 5727 5726 5725 5723 5722 5721 5720 5720 5720 5722 5720 5719 5715 5714 5713 5711 5710 5709
5725 5725 5725 5725 5727 5728 5729 5729 5730 5730 5730 5730 5730 5730 5729 5729 5729 5728 5728 5727 5727 5726 5726 5725 5724 5723 5722 5721 5719 5718 5717 5716 5716 5717 5717 5715 5714 5711 5709 5708 5707 5705 5704
5718 5719 5719 5720 5721 5722 5724 5724 5725 5725 5725 5726 5726 5725 5725 5725 5724 5724 5723 5723 5722 5722 5721 5721 5720 5719 5718 5716 5715 5714 5713 5712 5713 5713 5712 5711 5709 5706 5705 5703 5702 5701 5699
5711 5712 5712 5713 5715 5716 5717 5718 5719 5720 5720 5721 5721 5721 5721 5720 5719 5719 5719 5718 5718 5717 5717 5716 5715 5714 5713 5712 5711 5709 5708 5707 5709 5708 5707 5706 5703 5701 5700 5699 5697 5696 5694
5702 5704 5705 5706 5708 5709 5711 5712 5713 5714 5715 5715 5715 5715 5715 5715 5715 5714 5714 5713 5713 5712 5712 5711 5710 5709 5708 5707 5706 5704 5703 5702 5703 5703 5702 5700 5697 5696 5695 5694 5692 5691 5689
5693 5696 5697 5699 5700 5701 5703 5705 5706 5707 5708 5709 5710 5710 5710 5710 5710 5709 5708 5708 5707 5707 5707 5706 5705 5704 5703 5702 5700 5699 5698 5697 5699 5698 5697 5695 5692 5691 5690 5688 5687 5685 5683
5684 5686 5689 5691 5693 5694 5696 5697 5699 5700 5701 5702 5703 5704 5704 5704 5704 5703 5703 5702 5702 5702 5701 5700 5700 5699 5698 5696 5695 5694 5693 5693 5694 5692 5691 5689 5686 5686 5684 5683 5681 5680 5678
5674 5677 5680 5683 5685 5687 5688 5689 5691 5692 5693 5695 5696 5697 5698 5699 5699 5698 5697 5697 5696 5696 5696 5695 5694 5694 5692 5691 5690 5688 5688 5690 5688 5687 5684 5682 5680 5680 5679 5677 5675 5674 5672
5665 5668 5671 5674 5677 5679 5680 5682 5684 5685 5686 5688 5690 5691 5692 5694 5694 5693 5691 5691 5691 5691 5690 5689 5689 5688 5688 5688 5685 5684 5685 5684 5683 5681 5678 5675 5674 5674 5672 5671 5670 5668 5666
5655 5658 5661 5664 5667 5670 5673 5675 5677 5678 5680 5682 5683 5685 5686 5687 5687 5687 5687 5686 5686 5685 5686 5684 5685 5685 5684 5683 5681 5681 5680 5678 5677 5675 5672 5669 5668 5667 5666 5665 5664 5662 5661
5645 5648 5651 5655 5658 5662 5664 5667 5670 5672 5673 5674 5675 5677 5680 5680 5680 5681 5681 5681 5681 5681 5681 5680 5680 5679 5678 5677 5676 5675 5674 5672 5670 5668 5665 5662 5661 5660 5659 5658 5657 5656 5654
5636 5639 5642 5646 5650 5653 5656 5658 5661 5664 5665 5666 5668 5669 5672 5673 5674 5674 5674 5674 5675 5675 5675 5675 5674 5673 5673 5671 5670 5668 5667 5666 5664 5662 5659 5656 5654 5653 5652 5652 5650 5649 5648
5627 5630 5633 5637 5640 5643 5647 5649 5653 5655 5656 5659 5660 5662 5663 5665 5665 5667 5667 5667 5668 5668 5668 5668 5668 5667 5666 5665 5663 5662 5661 5659 5657 5655 5653 5650 5648 5646 5645 5644 5643 5642 5640
5617 5621 5624 5628 5631 5634 5637 5640 5644 5647 5649 5650 5652 5653 5655 5657 5659 5659 5660 5660 5661 5661 5661 5661 5660 5660 5659 5657 5656 5655 5653 5652 5650 5648 5646 5644 5642 5640 5638 5636 5635 5634 5632
5607 5611 5615 5619 5622 5625 5627 5631 5634 5637 5640 5641 5643 5645 5647 5649 5650 5651 5652 5653 5653 5653 5653 5653 5653 5653 5652 5651 5649 5648 5646 5644 5643 5641 5639 5637 5635 5633 5631 5628 5627 5625 5624
5598 5602 5606 5609 5612 5615 5617 5621 5624 5627 5630 5632 5634 5636 5638 5641 5641 5643 5644 5645 5645 5645 5645 5645 5645 5645 5644 5643 5641 5640 5639 5637 5635 5633 5631 5629 5627 5625 5623 5621 5619 5617 5615
5589 5593 5596 5599 5602 5605 5608 5611 5614 5617 5620 5622 5624 5626 5629 5632 5633 5634 5635 5636 5636 5637 5637 5638 5637 5636 5635 5634 5633 5632 5631 5629 5627 5626 5623 5621 5619 5617 5615 5613 5612 5610 5607
5580 5584 5587 5590 5592 5596 5599 5602 5604 5607 5610 5613 5614 5616 5619 5622 5624 5626 5627 5628 5628 5628 5629 5629 5629 5628 5626 5625 5625 5624 5623 5621 5620 5617 5615 5614 5612 5609 5607 5606 5604 5602 5600
5571 5575 5579 5582 5584 5586 5588 5592 5595 5598 5600 5603 5604 5606 5609 5612 5615 5617 5619 5619 5619 5619 5620 5620 5620 5619 5618 5617 5617 5617 5617 5616 5613 5610 5608 5606 5604 5602 5600 5598 5596 5594 5591
5564 5567 5570 5572 5575 5577 5579 5582 5585 5588 5591 5594 5596 5598 5600 5602 5605 5608 5609 5610 5610 5611 5611 5611 5610 5610 5610 5609 5608 5608 5609 5610 5607 5605 5601 5599 5597 5595 5594 5591 5589 5586 5583
5557 5559 5562 5564 5565 5567 5570 5574 5578 5581 5584 5586 5588 5589 5591 5592 5595 5597 5599 5600 5601 5602 5602 5602 5602 5601 5601 5601 5600 5597 5597 5597 5596 5598 5595 5592 5589 5588 5586 5584 5582 5579 5575
5549 5551 5553 5555 5557 5559 5562 5565 5569 5572 5574 5576 5579 5581 5583 5584 5586 5587 5589 5591 5591 5592 5593 5593 5592 5592 5592 5592 5591 5590 5588 5587 5587 5587 5589 5586 5583 5581 5578 5576 5574 5572 5568
5541 5543 5544 5547 5549 5550 5553 5557 5560 5563 5565 5567 5570 5572 5574 5575 5577 5578 5580 5581 5582 5583 5583 5584 5583 5583 5583 5583 5582 5581 5581 5580 5579 5578 5579 5578 5577 5575 5572 5569 5567 5564 5561